Robert Spertsyan

Chefscout - Ararat
22 Feb 2028
Dienstag
Verarbeitung

Persönlichkeit

Anpassungsfähigkeit (17) Ehrgeiz (1) Kontroverse (19) Loyalität (2) Druck (16) Professionalität (19) Fairness (11) Temperament (5)

Profil

Trainerstil Demokratisch
Lizenz Kontinentale Pro
Entschlossenheit 8
Menschenführung 10
Motivation 5
Disziplin 6
Arbeitszufriedenheit
100%
Ermüdung
0%
Rolle Chefscout
Gehalt 38.9K p/W
Vertrag 14.03.2029

Leistung

Verhalten Gut
Trainingseffektivität
39%
Spielerentwicklung
30%
Verletzungsprävention
45%
Taktische Umsetzung
40%

Letzte Ereignisse

Nahm an einer Scouting-Besprechung teil jetzt
Empfahl ein Transferziel jetzt
Nahm an einer Scouting-Besprechung teil jetzt
Nahm an einer Scouting-Besprechung teil 7T her
Empfahl ein Transferziel 7T her
Empfahl ein Transferziel 7T her
Nahm an einer Scouting-Besprechung teil 7T her
Nahm an einer Scouting-Besprechung teil 7T her

Aktuell beobachtet

173
Spieler Verein Status Fähigkeit Vertrauen Beobachtet Zuletzt beobachtet Letzte Stimme
Andy Polar Saburtalo Aktiv 108 / 101 40% 4 08.02.2028 -
Luca Connell Barnsley Aktiv 126 / 113 40% 1 08.02.2028 -
Martin Kramarič Krylya Sovetov Aktiv 106 / 131 40% 1 07.02.2028 -
Tigran Avanesyan Arsenal Tula Aktiv 104 / 97 40% 1 07.02.2028 -
Thiago López Almagro Aktiv 92 / 106 40% 2 24.01.2028 -
Abel Bustos Racing Aktiv 128 / 116 40% 1 24.01.2028 -
Shota Shekiladze Akhmat Grozny Bericht bereit 110 / 110 66% 1 01.01.2028 Befürworten
Gonzalo Abrego Godoy Cruz Aktiv 116 / 130 40% 2 08.12.2027 -
Facundo Heredia Patronato Aktiv 95 / 110 40% 2 08.12.2027 -
Fernando Bersano Madryn Verhandlung 130 / 99 40% 2 07.12.2027 -
Franco Zicarelli Colegiales Aktiv 111 / 93 40% 2 04.12.2027 -
Sebastián Jaurena San Martín SJ Aktiv 125 / 126 40% 1 04.12.2027 -
Enzo Martínez Almagro Aktiv 117 / 124 40% 4 03.12.2027 -
Lautaro Disanto Defensores Unidos Aktiv 104 / 118 40% 2 02.12.2027 -
Julián Cosi Madryn Aktiv 131 / 127 40% 1 02.12.2027 -
David Veliz Güemes Aktiv 100 / 99 40% 2 01.12.2027 -
Valentín Serrano Arsenal Aktiv 118 / 115 40% 1 01.12.2027 -
Juan Pablo Gobetto Maipú Aktiv 113 / 95 40% 2 28.11.2027 -
José Mercado Union Magdalena Aktiv 120 / 114 40% 1 26.11.2027 -
Juan Esteban Ávalo Aguilas Doradas Aktiv 106 / 110 40% 2 25.11.2027 -
Vicente Poggi Godoy Cruz Aktiv 112 / 112 40% 1 25.11.2027 -
Giorgi Beridze Dinamo Tbilisi Aktiv 117 / 101 40% 2 24.11.2027 -
Valentin Pereyra Patronato Aktiv 121 / 126 40% 1 24.11.2027 -
Augusto Berrondo Tristán Suárez Aktiv 116 / 116 40% 1 21.11.2027 -
Enzo Silcan Almagro Aktiv 110 / 111 40% 1 21.11.2027 -
Cristian Zabala Sarmiento Aktiv 104 / 103 40% 1 20.11.2027 -
Facundo Ardiles Estudiantes Aktiv 103 / 119 40% 2 19.11.2027 -
Oscar Garrido Mitre Aktiv 99 / 104 40% 1 19.11.2027 -
Diogo Guzmán Montevideo City Torque Aktiv 107 / 121 40% 2 18.11.2027 -
Gianluca Pugliese Güemes Aktiv 116 / 111 40% 2 17.11.2027 -
Martín García Atlanta Aktiv 106 / 120 40% 3 14.11.2027 -
Tomás Ferreyra Defensores Unidos Aktiv 122 / 121 40% 1 14.11.2027 -
Juan Pablo Barinaga Patronato Aktiv 126 / 131 40% 3 11.11.2027 -
Federico Bisanz Atlanta Aktiv 104 / 104 40% 1 11.11.2027 -
Franco Camargo Gimnasia y Esgrima Aktiv 100 / 125 40% 1 10.11.2027 -
Luis Olivera Defensores Unidos Aktiv 124 / 122 40% 1 07.11.2027 -
Tiago Banega Gimnasia y Tiro Aktiv 97 / 100 40% 1 02.11.2027 -
Miguel Ceccotti Güemes Aktiv 125 / 92 40% 1 02.11.2027 -
Maximiliano Ribero Central Norte Aktiv 99 / 113 40% 1 30.10.2027 -
Nicolás Heiz Maipú Aktiv 109 / 104 40% 1 30.10.2027 -
Maximiliano Luayza Koot Tristán Suárez Aktiv 117 / 114 40% 1 25.10.2027 -
Erickson Gallardo Zamora Aktiv 129 / 104 40% 1 25.10.2027 -
Chidiebere Nwobodo Rangers International Aktiv 105 / 85 40% 1 24.10.2027 -
Ramón González Almirante Brown Aktiv 109 / 115 40% 1 22.10.2027 -
Kevin Méndez Dinamo Tbilisi Aktiv 120 / 112 40% 2 19.10.2027 -
Alejo Dramisino Atlanta Aktiv 106 / 127 40% 1 09.10.2027 -
Maximiliano Rueda Patronato Aktiv 104 / 120 40% 1 06.10.2027 -
Francisco Funes Los Andes Aktiv 111 / 89 40% 1 06.10.2027 -
Dante Álvarez San Martín SJ Aktiv 115 / 112 40% 1 04.10.2027 -
Facundo Nadalín San Martín SJ Aktiv 120 / 102 40% 1 15.09.2027 -
Diego Gaitán Maipú Aktiv 93 / 102 40% 1 13.09.2027 -
Santiago Sala Güemes Aktiv 111 / 105 40% 1 13.09.2027 -
Rodrigo Melo Estudiantes Aktiv 120 / 105 40% 1 07.09.2027 -
Enock Morrison Gor Mahia Aktiv 80 / 99 40% 1 06.09.2027 -
Duvan Rangel La Equidad Aktiv 136 / 138 40% 1 06.09.2027 -
Kevin Bright Alcione Milano Aktiv 115 / 103 40% 2 10.08.2027 -
Luca Vignali Virtus Entella Aktiv 132 / 114 40% 1 02.08.2027 -
Javi García Vicenza Aktiv 93 / 106 40% 1 02.08.2027 -
Andrea Cagnano Arezzo Aktiv 118 / 113 40% 2 01.08.2027 -
Davide Balestrero Union Brescia Aktiv 122 / 119 40% 2 01.08.2027 -
Flavio Ciuferri Trapani Aktiv 113 / 101 40% 2 26.07.2027 -
Tiago Casasola Union Brescia Aktiv 124 / 112 40% 1 23.07.2027 -
Saimon Ramírez Metropolitanos Aktiv 94 / 121 40% 1 23.07.2027 -
Enrico Brignola Ternana Aktiv 115 / 105 40% 2 20.07.2027 -
Adalberto Peñaranda Deportivo Tachira Aktiv 122 / 113 40% 1 19.07.2027 -
Brian Orosco Godoy Cruz Aktiv 117 / 101 40% 1 17.07.2027 -
Gastón Moreyra Almirante Brown Aktiv 115 / 128 40% 1 14.07.2027 -
Federico Giraudo Casarano Aktiv 108 / 113 40% 1 13.07.2027 -
Danil Lipovoy Ufa Aktiv 113 / 111 40% 3 09.07.2027 -
Francesco Orlando Cavese Aktiv 113 / 101 40% 2 09.07.2027 -
Ethan Bristow Tranmere Rovers Aktiv 95 / 107 40% 4 08.07.2027 -
Francesco D'Alessio Cittadella Aktiv 121 / 112 40% 1 07.07.2027 -
Christian D'Urso Triestina Aktiv 95 / 95 40% 1 06.07.2027 -
Bruno Michel Urartu Aktiv 118 / 120 55% 1 05.07.2027 -
Aboubacar Doumbia Al-Orobah Aktiv 114 / 93 40% 3 03.07.2027 -
Mattia Vitale Salernitana Aktiv 106 / 103 40% 1 03.07.2027 -
Ilja Berkovskiy Torpedo Moscow Aktiv 119 / 99 40% 3 01.07.2027 -
Giacomo Zecca Torres Aktiv 101 / 114 40% 1 01.07.2027 -
Đorđe Pantelić Spartak Kostroma Aktiv 107 / 112 40% 5 25.06.2027 -
Alberto Rizzo Union Brescia Aktiv 104 / 101 40% 1 25.06.2027 -
Eyob Zambataro Novara Aktiv 105 / 101 40% 1 22.06.2027 -
Mohammad Alsalkhadi Damac Aktiv 128 / 95 40% 3 21.06.2027 -
Kamran Aliev SKA Khabarovsk Aktiv 89 / 116 40% 3 04.06.2027 -
Josh Dacres-Cogley Stockport County Aktiv 110 / 112 40% 7 30.05.2027 -
Sergio Rodelas Granada Aktiv 112 / 119 40% 1 30.05.2027 -
Fortune Bassey Djoliba Aktiv 91 / 97 40% 3 29.05.2027 -
Roman Dixon Walsall Aktiv 109 / 109 40% 1 29.05.2027 -
Luca Crecco Sorrento Aktiv 108 / 107 40% 1 26.05.2027 -
Vladimir Khubulov Dinamo Makhachkala Aktiv 116 / 100 40% 3 23.05.2027 -
Bruno Figueiredo Zabbar St. Patrick Aktiv 95 / 85 40% 2 19.05.2027 -
Kevin Halabaku Hibernians Aktiv 106 / 101 40% 1 19.05.2027 Mehr Infos nötig
Teddy Okou Al-Riyadh Aktiv 138 / 99 40% 1 15.05.2027 -
Georges-Kévin Nkoudou Al-Diriyah Aktiv 127 / 116 40% 2 14.05.2027 -
Temirkan Sundukov Dinamo Makhachkala Aktiv 110 / 125 40% 1 14.05.2027 -
Sam Gale Gillingham Aktiv 97 / 108 40% 1 10.05.2027 -
Djibril Coulibaly Real Bamako Aktiv 103 / 107 40% 1 08.05.2027 -
Igor Gorbunov Arsenal Tula Aktiv 108 / 82 40% 1 07.05.2027 -
Leo Goglichidze Rodina Aktiv 114 / 117 40% 3 05.05.2027 -
Lynden Edhart Cambuur Aktiv 103 / 107 40% 1 05.05.2027 -
Hugo Moura Al-Fayha Aktiv 132 / 130 40% 1 02.05.2027 -
Kamarni Ryan Burton Albion Aktiv 99 / 92 40% 1 28.04.2027 -
Robert Murić Floriana Aktiv 115 / 100 40% 3 26.04.2027 -
Andrey Nikitin Neftekhimik Aktiv 108 / 82 40% 1 26.04.2027 -
Makan Camara AS Bakaridjan Aktiv 114 / 109 40% 1 21.04.2027 -
Trezeguet Al-Riyadh Aktiv 119 / 145 40% 2 20.04.2027 -
Jon Eceizabarrena Real Sociedad Aktiv 101 / 105 40% 1 19.04.2027 -
Mohammad Javad Hosseinnejad Dinamo Makhachkala Aktiv 114 / 115 40% 1 14.04.2027 -
Ahmed Al-Nakhli Al-Hazem Aktiv 97 / 117 40% 1 10.04.2027 -
Malick Touré Onze Createurs Aktiv 83 / 92 40% 1 09.04.2027 -
Bojan Roganović Torpedo Moscow Aktiv 102 / 122 40% 1 07.04.2027 -
Nuri Abdokov Fakel Aktiv 101 / 116 40% 1 07.04.2027 -
Darko Todorović Fakel Aktiv 104 / 118 40% 1 05.04.2027 -
Ekain Orobengoa Real Sociedad Aktiv 94 / 107 40% 3 01.04.2027 -
Vasily Cherov Ufa Aktiv 96 / 117 40% 1 31.03.2027 -
Maxime Sivis Orenburg Aktiv 134 / 100 40% 1 31.03.2027 -
Mamaye Coulibaly Djoliba Aktiv 98 / 99 40% 1 30.03.2027 -
Bruno Gomes Valletta Aktiv 95 / 107 40% 3 29.03.2027 -
Roberto Siucho Najran Aktiv 91 / 102 40% 1 23.03.2027 -
Ruslan Cherviakov Spartak Kostroma Aktiv 89 / 94 40% 2 22.03.2027 -
Aaron Drinan Swindon Town Aktiv 112 / 97 40% 3 17.03.2027 -
Eduardo Armenta Ufa Aktiv 102 / 117 40% 2 12.03.2027 -
Ahmed Bamasud Al-Fayha Aktiv 89 / 88 40% 1 11.03.2027 -
Ilja Vakhania Krasnodar Aktiv 115 / 117 40% 3 03.03.2027 -
Álvaro Medrán Al-Ettifaq Aktiv 133 / 134 40% 2 02.03.2027 -
Vyacheslav Grulev Nizhniy Novgorod Aktiv 129 / 128 40% 2 28.02.2027 -
Bruno Almeida AEL Aktiv 123 / 107 40% 1 27.02.2027 -
Facundo González Yenisey Aktiv 110 / 81 40% 2 26.02.2027 -
Jordhy Thompson Orenburg Aktiv 111 / 132 40% 1 26.02.2027 -
Daniel Mancini APOEL Aktiv 112 / 129 40% 2 25.02.2027 -
Sebastián Arce Rodina Aktiv 117 / 127 40% 1 25.02.2027 -
Nikolay Giorgobiani Fakel Aktiv 91 / 121 40% 1 22.02.2027 -
Enzo Cabrera AE Kition Aktiv 122 / 105 40% 1 20.02.2027 -
Milton Castagna Neftekhimik Aktiv 108 / 111 40% 1 17.02.2027 -
Stefan Lončar Akron Aktiv 110 / 129 40% 1 16.02.2027 -
Arsen Adamov Akhmat Grozny Aktiv 123 / 123 40% 2 15.02.2027 -
Ramazan Gadjimuradov Chelyabinsk Aktiv 112 / 115 40% 1 14.02.2027 -
Lechi Sadulaev Akhmat Grozny Aktiv 108 / 132 40% 1 12.02.2027 -
Radhi Al-Otaibi Al-Ettifaq Aktiv 91 / 127 40% 1 10.02.2027 -
Miloš Brnović Arsenal Tula Aktiv 116 / 128 40% 1 06.02.2027 -
Mohau Nkota Al-Ettifaq Aktiv 118 / 131 40% 1 01.02.2027 -
Alexandr Ektov Nizhniy Novgorod Aktiv 98 / 123 40% 1 29.01.2027 -
Yeangel Montero Naxxar Lions Aktiv 104 / 111 40% 2 20.01.2027 Mehr Infos nötig
Ruslan Apekov Torpedo Moscow Aktiv 92 / 102 40% 3 29.12.2026 -
Moussa Koné Al-Ra'ed Aktiv 130 / 113 40% 1 29.12.2026 Mehr Infos nötig
Andre Green AVS Aktiv 114 / 112 40% 2 27.12.2026 -
Prince Ibara Al-Njoom Aktiv 118 / 90 40% 1 27.12.2026 -
Peter Olayinka Al-Wehda Aktiv 122 / 118 40% 2 25.12.2026 -
Eren Aydın Zira Aktiv 107 / 112 40% 1 25.12.2026 -
John Kennedy Fluminense Aktiv 121 / 132 40% 2 24.12.2026 Mehr Infos nötig
Joaquín Bigo Tristán Suárez Aktiv 99 / 106 40% 1 23.12.2026 -
Tommaso Orsini Sambenedettese Aktiv 103 / 95 40% 1 23.12.2026 -
Moussakoye Diallo Stade Malien Aktiv 105 / 89 40% 1 21.12.2026 -
Leandro Antunes Al-Riyadh Aktiv 105 / 118 40% 2 20.12.2026 -
Kenan Dervišagić Floriana Aktiv 104 / 100 40% 1 20.12.2026 -
Nathan Ordaz Metalist Aktiv 102 / 99 40% 1 19.12.2026 -
Martin Sekulić Ural Aktiv 110 / 108 40% 3 16.12.2026 -
Taofeek Ismaheel Qarabag Aktiv 120 / 102 40% 1 16.12.2026 -
Alexandr Yushin Torpedo Moscow Aktiv 90 / 95 40% 3 15.12.2026 -
Mikhail Ignatov Sochi Aktiv 124 / 125 40% 1 14.12.2026 -
Dmitry Tsypchenko Torpedo Moscow Aktiv 90 / 121 40% 1 13.12.2026 -
Ruslan Ozobic Inter Aktiv 113 / 115 40% 1 05.12.2026 -
Jurica Poldrugač Rudes Aktiv 116 / 90 40% 1 05.12.2026 -
Daniil Frolkin Fakel Aktiv 120 / 122 40% 1 05.12.2026 -
Islam Imamov SKA Khabarovsk Aktiv 113 / 80 40% 1 02.12.2026 -
Mésaque Djú Portimonense Aktiv 100 / 97 40% 1 27.11.2026 -
Marcelo Torres Gimnasia La Plata Aktiv 121 / 121 40% 1 23.11.2026 -
David Sangaré Ryazan Aktiv 87 / 74 40% 1 23.11.2026 -
Anton Andersson Falkenberg Aktiv 102 / 88 40% 1 23.11.2026 -
Luke McGee Tranmere Rovers Aktiv 97 / 97 40% 1 22.11.2026 -
Filip Marschall Stevenage Aktiv 111 / 120 40% 2 20.11.2026 -
Kamil Conteh Bristol Rovers Aktiv 109 / 100 40% 1 17.11.2026 -
Stefan Despotovski OFK Beograd Aktiv 83 / 116 40% 1 17.11.2026 -
Facundo Castro Defensor Sporting Aktiv 124 / 112 40% 1 02.08.2026 -